| time (UTC) | temp F | wind direction | speed MPH | gust MPH | rain 1hr in | rain 24hr in | rain mn in | humidity % | barometer mb |
| 20260507145032 | 61 | 281 | 2.0 | 2.0 | 0.00 | 0.00 | 0.00 | 64 | 1018.1 |
| 20260507144528 | 60 | 292 | 3.0 | 4.0 | 0.00 | 0.00 | 0.00 | 61 | 1018.2 |
| 20260507144026 | 59 | 7 | 1.0 | 7.0 | 0.00 | 0.00 | 0.00 | 65 | 1017.8 |
| 20260507143522 | 59 | 218 | 2.0 | 4.0 | 0.00 | 0.00 | 0.00 | 62 | 1018.2 |
| 20260507143020 | 59 | 357 | 0.0 | 2.0 | 0.00 | 0.00 | 0.00 | 67 | 1018.2 |
| 20260507142515 | 58 | 206 | 2.0 | 6.0 | 0.00 | 0.00 | 0.00 | 64 | 1017.9 |
| 20260507142012 | 58 | 192 | 4.0 | 7.0 | 0.00 | 0.00 | 0.00 | 63 | 1017.9 |
| 20260507141508 | 59 | 40 | 1.0 | 7.0 | 0.00 | 0.00 | 0.00 | 65 | 1018.1 |
| 20260507141007 | 59 | 61 | 1.0 | 1.0 | 0.00 | 0.00 | 0.00 | 67 | 1018.3 |
| 20260507140502 | 58 | 226 | 1.0 | 2.0 | 0.00 | 0.00 | 0.00 | 67 | 1018.2 |
| 20260507135959 | 56 | 343 | 1.0 | 7.0 | 0.00 | 0.00 | 0.00 | 69 | 1018.4 |
| 20260507135456 | 57 | 291 | 1.0 | 2.0 | 0.00 | 0.00 | 0.00 | 69 | 1018.3 |
| 20260507134953 | 55 | 281 | 2.0 | 3.0 | 0.00 | 0.00 | 0.00 | 71 | 1018.2 |
| 20260507134449 | 55 | 358 | 1.0 | 2.0 | 0.00 | 0.00 | 0.00 | 70 | 1018.2 |
| 20260507133946 | 54 | 329 | 2.0 | 3.0 | 0.00 | 0.00 | 0.00 | 73 | 1018.4 |
| 20260507133442 | 53 | 217 | 2.0 | 3.0 | 0.00 | 0.00 | 0.00 | 73 | 1018.3 |
| 20260507132941 | 53 | 288 | 2.0 | 2.0 | 0.00 | 0.00 | 0.00 | 73 | 1018.3 |
| 20260507132436 | 52 | 18 | 3.0 | 3.0 | 0.00 | 0.00 | 0.00 | 74 | 1018.3 |
| 20260507131933 | 52 | 30 | 0.0 | 3.0 | 0.00 | 0.00 | 0.00 | 75 | 1018.3 |
| 20260507131430 | 52 | 354 | 1.0 | 2.0 | 0.00 | 0.00 | 0.00 | 74 | 1018.3 |
| 20260507130927 | 52 | 295 | 1.0 | 2.0 | 0.00 | 0.00 | 0.00 | 73 | 1018.4 |
| 20260507130424 | 51 | 1 | 0.0 | 2.0 | 0.00 | 0.00 | 0.00 | 76 | 1018.4 |
| 20260507125923 | 50 | 186 | 3.0 | 4.0 | 0.00 | 0.00 | 0.00 | 75 | 1018.6 |
| 20260507125420 | 50 | 0 | 0.0 | 2.0 | 0.00 | 0.00 | 0.00 | 77 | 1018.4 |
| 20260507124918 | 49 | 357 | 0.0 | 1.0 | 0.00 | 0.00 | 0.00 | 78 | 1018.7 |
| 20260507124413 | 49 | 348 | 1.0 | 1.0 | 0.00 | 0.00 | 0.00 | 78 | 1018.5 |
| 20260507123912 | 48 | 332 | 1.0 | 2.0 | 0.00 | 0.00 | 0.00 | 78 | 1018.4 |
| 20260507123409 | 48 | 354 | 0.0 | 1.0 | 0.00 | 0.00 | 0.00 | 79 | 1018.4 |
| 20260507122905 | 47 | 345 | 0.0 | 1.0 | 0.00 | 0.00 | 0.00 | 81 | 1018.4 |
| 20260507122400 | 46 | 346 | 0.0 | 1.0 | 0.00 | 0.00 | 0.00 | 81 | 1018.5 |
| 20260507121857 | 46 | 344 | 0.0 | 1.0 | 0.00 | 0.00 | 0.00 | 82 | 1018.4 |
| 20260507121352 | 44 | 343 | 0.0 | 1.0 | 0.00 | 0.00 | 0.00 | 84 | 1018.5 |
| 20260507120849 | 42 | 343 | 0.0 | 0.0 | 0.00 | 0.00 | 0.00 | 89 | 1018.5 |
| 20260507120346 | 41 | 351 | 0.0 | 0.0 | 0.00 | 0.00 | 0.00 | 90 | 1018.7 |
| 20260507115842 | 41 | 349 | 0.0 | 0.0 | 0.00 | 0.00 | 0.00 | 90 | 1018.5 |
| 20260507115338 | 40 | 345 | 0.0 | 0.0 | 0.00 | 0.00 | 0.00 | 90 | 1018.4 |
| 20260507114833 | 40 | 352 | 0.0 | 0.0 | 0.00 | 0.00 | 0.00 | 90 | 1018.5 |
| 20260507114331 | 40 | 353 | 0.0 | 0.0 | 0.00 | 0.00 | 0.00 | 90 | 1018.4 |
| 20260507113828 | 40 | 353 | 0.0 | 0.0 | 0.00 | 0.00 | 0.00 | 90 | 1018.5 |
| 20260507113325 | 40 | 351 | 0.0 | 0.0 | 0.00 | 0.00 | 0.00 | 90 | 1018.4 |
| 20260507112823 | 40 | 351 | 0.0 | 0.0 | 0.00 | 0.00 | 0.00 | 89 | 1018.3 |
| 20260507112319 | 40 | 351 | 0.0 | 0.0 | 0.00 | 0.00 | 0.00 | 89 | 1018.3 |
| 20260507111818 | 40 | 351 | 0.0 | 0.0 | 0.00 | 0.00 | 0.00 | 88 | 1018.2 |
| 20260507111314 | 41 | 351 | 0.0 | 0.0 | 0.00 | 0.00 | 0.00 | 88 | 1018.2 |
| 20260507110810 | 41 | 351 | 0.0 | 0.0 | 0.00 | 0.00 | 0.00 | 87 | 1018.1 |
| 20260507110307 | 41 | 350 | 0.0 | 0.0 | 0.00 | 0.00 | 0.00 | 87 | 1018.3 |
| 20260507105804 | 41 | 351 | 0.0 | 0.0 | 0.00 | 0.00 | 0.00 | 86 | 1018.1 |
| 20260507105301 | 41 | 348 | 0.0 | 0.0 | 0.00 | 0.00 | 0.00 | 86 | 1017.9 |
| 20260507104758 | 41 | 345 | 0.0 | 0.0 | 0.00 | 0.00 | 0.00 | 87 | 1018.1 |
| 20260507104254 | 41 | 353 | 0.0 | 0.0 | 0.00 | 0.00 | 0.00 | 88 | 1017.9 |
| 20260507103750 | 41 | 353 | 0.0 | 0.0 | 0.00 | 0.00 | 0.00 | 88 | 1017.9 |
| 20260507103246 | 41 | 353 | 0.0 | 0.0 | 0.00 | 0.00 | 0.00 | 87 | 1018.2 |
| 20260507102743 | 41 | 352 | 0.0 | 0.0 | 0.00 | 0.00 | 0.00 | 87 | 1018.2 |
| 20260507102239 | 41 | 353 | 0.0 | 0.0 | 0.00 | 0.00 | 0.00 | 87 | 1018.2 |
| 20260507101735 | 41 | 353 | 0.0 | 0.0 | 0.00 | 0.00 | 0.00 | 86 | 1018.2 |
| 20260507101230 | 41 | 353 | 0.0 | 0.0 | 0.00 | 0.00 | 0.00 | 86 | 1018.1 |
| 20260507100727 | 42 | 353 | 0.0 | 0.0 | 0.00 | 0.00 | 0.00 | 85 | 1018.1 |
| 20260507100226 | 42 | 355 | 0.0 | 0.0 | 0.00 | 0.00 | 0.00 | 84 | 1018.3 |
| 20260507095724 | 42 | 350 | 0.0 | 0.0 | 0.00 | 0.00 | 0.00 | 83 | 1018.2 |
| 20260507095220 | 43 | 354 | 0.0 | 0.0 | 0.00 | 0.00 | 0.00 | 83 | 1018.4 |
| 20260507094717 | 43 | 352 | 0.0 | 0.0 | 0.00 | 0.00 | 0.00 | 82 | 1018.3 |
| 20260507094214 | 43 | 350 | 0.0 | 0.0 | 0.00 | 0.00 | 0.00 | 81 | 1018.4 |
| 20260507093711 | 43 | 352 | 0.0 | 0.0 | 0.00 | 0.00 | 0.00 | 83 | 1018.4 |
| 20260507093209 | 43 | 352 | 0.0 | 0.0 | 0.00 | 0.00 | 0.00 | 82 | 1018.3 |
| 20260507092706 | 42 | 351 | 0.0 | 0.0 | 0.00 | 0.00 | 0.00 | 83 | 1018.5 |
| 20260507092202 | 42 | 349 | 0.0 | 0.0 | 0.00 | 0.00 | 0.00 | 84 | 1018.4 |
| 20260507091659 | 41 | 349 | 0.0 | 0.0 | 0.00 | 0.00 | 0.00 | 88 | 1018.5 |
| 20260507091155 | 40 | 353 | 0.0 | 0.0 | 0.00 | 0.00 | 0.00 | 90 | 1018.5 |
| 20260507090651 | 40 | 348 | 0.0 | 0.0 | 0.00 | 0.00 | 0.00 | 90 | 1018.6 |
| 20260507090148 | 40 | 351 | 0.0 | 0.0 | 0.00 | 0.00 | 0.00 | 90 | 1018.6 |
| 20260507085645 | 40 | 353 | 0.0 | 0.0 | 0.00 | 0.00 | 0.00 | 90 | 1018.5 |
| 20260507085142 | 40 | 351 | 0.0 | 0.0 | 0.00 | 0.00 | 0.00 | 91 | 1018.6 |
| 20260507084639 | 39 | 352 | 0.0 | 0.0 | 0.00 | 0.00 | 0.00 | 91 | 1018.4 |
| 20260507084135 | 39 | 350 | 0.0 | 0.0 | 0.00 | 0.00 | 0.00 | 92 | 1018.4 |
| 20260507083632 | 39 | 353 | 0.0 | 0.0 | 0.00 | 0.00 | 0.00 | 92 | 1018.4 |
| 20260507083129 | 39 | 348 | 0.0 | 0.0 | 0.00 | 0.00 | 0.00 | 92 | 1018.5 |
| 20260507082625 | 39 | 348 | 0.0 | 0.0 | 0.00 | 0.00 | 0.00 | 92 | 1018.6 |
| 20260507082121 | 39 | 352 | 0.0 | 0.0 | 0.00 | 0.00 | 0.00 | 92 | 1018.6 |
| 20260507081618 | 39 | 352 | 0.0 | 0.0 | 0.00 | 0.00 | 0.00 | 93 | 1018.7 |
| 20260507081115 | 40 | 352 | 0.0 | 0.0 | 0.00 | 0.00 | 0.00 | 93 | 1018.7 |
| 20260507080611 | 40 | 352 | 0.0 | 0.0 | 0.00 | 0.00 | 0.00 | 93 | 1018.4 |
| 20260507080108 | 40 | 352 | 0.0 | 0.0 | 0.00 | 0.00 | 0.00 | 92 | 1018.5 |
| 20260507075602 | 40 | 352 | 0.0 | 0.0 | 0.00 | 0.00 | 0.00 | 92 | 1018.4 |
| 20260507075059 | 40 | 352 | 0.0 | 0.0 | 0.00 | 0.00 | 0.00 | 92 | 1018.4 |
| 20260507074556 | 40 | 352 | 0.0 | 0.0 | 0.00 | 0.00 | 0.00 | 91 | 1018.6 |
| 20260507074054 | 41 | 352 | 0.0 | 0.0 | 0.00 | 0.00 | 0.00 | 90 | 1018.6 |
| 20260507073550 | 41 | 352 | 0.0 | 0.0 | 0.00 | 0.00 | 0.00 | 90 | 1018.3 |
| 20260507073047 | 41 | 351 | 0.0 | 0.0 | 0.00 | 0.00 | 0.00 | 88 | 1018.6 |
| 20260507072544 | 41 | 351 | 0.0 | 0.0 | 0.00 | 0.00 | 0.00 | 87 | 1018.7 |
| 20260507072041 | 41 | 352 | 0.0 | 0.0 | 0.00 | 0.00 | 0.00 | 86 | 1018.6 |
| 20260507071539 | 41 | 352 | 0.0 | 0.0 | 0.00 | 0.00 | 0.00 | 86 | 1018.8 |
| 20260507071035 | 42 | 352 | 0.0 | 0.0 | 0.00 | 0.00 | 0.00 | 88 | 1018.8 |
| 20260507070532 | 42 | 352 | 0.0 | 0.0 | 0.00 | 0.00 | 0.00 | 88 | 1018.9 |
| 20260507070030 | 43 | 350 | 0.0 | 0.0 | 0.00 | 0.00 | 0.00 | 88 | 1019.0 |
| 20260507065526 | 43 | 351 | 0.0 | 0.0 | 0.00 | 0.00 | 0.00 | 88 | 1018.9 |
| 20260507065023 | 43 | 351 | 0.0 | 0.0 | 0.00 | 0.00 | 0.00 | 87 | 1019.1 |
| 20260507064521 | 43 | 351 | 0.0 | 0.0 | 0.00 | 0.00 | 0.00 | 87 | 1019.1 |
| 20260507064019 | 43 | 351 | 0.0 | 0.0 | 0.00 | 0.00 | 0.00 | 87 | 1019.1 |
| 20260507063516 | 43 | 351 | 0.0 | 0.0 | 0.00 | 0.00 | 0.00 | 87 | 1019.2 |
| 20260507063013 | 43 | 351 | 0.0 | 0.0 | 0.00 | 0.00 | 0.00 | 86 | 1019.1 |
| 20260507062510 | 43 | 351 | 0.0 | 0.0 | 0.00 | 0.00 | 0.00 | 87 | 1019.2 |
| 20260507062008 | 43 | 351 | 0.0 | 0.0 | 0.00 | 0.00 | 0.00 | 87 | 1019.1 |
| 20260507061505 | 44 | 351 | 0.0 | 0.0 | 0.00 | 0.00 | 0.00 | 88 | 1019.3 |
| 20260507061003 | 44 | 351 | 0.0 | 0.0 | 0.00 | 0.00 | 0.00 | 87 | 1019.2 |
| 20260507060500 | 44 | 351 | 0.0 | 0.0 | 0.00 | 0.00 | 0.00 | 86 | 1019.2 |
| 20260507055956 | 43 | 351 | 0.0 | 0.0 | 0.00 | 0.00 | 0.00 | 86 | 1019.3 |
| 20260507055451 | 43 | 354 | 0.0 | 0.0 | 0.00 | 0.00 | 0.00 | 86 | 1019.2 |
| 20260507054949 | 42 | 353 | 0.0 | 0.0 | 0.00 | 0.00 | 0.00 | 89 | 1019.4 |
| 20260507054444 | 42 | 353 | 0.0 | 0.0 | 0.00 | 0.00 | 0.00 | 91 | 1019.3 |
| 20260507053942 | 42 | 353 | 0.0 | 0.0 | 0.00 | 0.00 | 0.00 | 91 | 1019.4 |
| 20260507053440 | 41 | 353 | 0.0 | 0.0 | 0.00 | 0.00 | 0.00 | 91 | 1019.2 |
| 20260507052938 | 41 | 353 | 0.0 | 0.0 | 0.00 | 0.00 | 0.00 | 91 | 1019.3 |
| 20260507052435 | 41 | 353 | 0.0 | 0.0 | 0.00 | 0.00 | 0.00 | 91 | 1019.4 |
| 20260507051932 | 40 | 353 | 0.0 | 0.0 | 0.00 | 0.00 | 0.00 | 91 | 1019.2 |
| 20260507051430 | 40 | 353 | 0.0 | 0.0 | 0.00 | 0.00 | 0.00 | 90 | 1019.3 |
| 20260507050926 | 40 | 353 | 0.0 | 0.0 | 0.00 | 0.00 | 0.00 | 91 | 1019.3 |
| 20260507050423 | 40 | 353 | 0.0 | 0.0 | 0.00 | 0.00 | 0.00 | 91 | 1019.3 |
| 20260507045920 | 40 | 353 | 0.0 | 0.0 | 0.00 | 0.02 | 0.02 | 91 | 1019.3 |
| 20260507045416 | 40 | 353 | 0.0 | 0.0 | 0.00 | 0.02 | 0.02 | 91 | 1019.4 |
| 20260507044914 | 41 | 353 | 0.0 | 0.0 | 0.00 | 0.02 | 0.02 | 91 | 1019.5 |
| 20260507044410 | 41 | 353 | 0.0 | 0.0 | 0.00 | 0.02 | 0.02 | 90 | 1019.5 |
| 20260507043906 | 41 | 353 | 0.0 | 0.0 | 0.00 | 0.02 | 0.02 | 90 | 1019.4 |
| 20260507043403 | 41 | 353 | 0.0 | 0.0 | 0.00 | 0.02 | 0.02 | 90 | 1019.3 |
| 20260507042859 | 41 | 353 | 0.0 | 0.0 | 0.00 | 0.02 | 0.02 | 88 | 1019.4 |
| 20260507042356 | 41 | 353 | 0.0 | 0.0 | 0.00 | 0.02 | 0.02 | 88 | 1019.3 |
| 20260507041852 | 41 | 353 | 0.0 | 0.0 | 0.00 | 0.02 | 0.02 | 88 | 1019.3 |
| 20260507041348 | 42 | 353 | 0.0 | 0.0 | 0.00 | 0.02 | 0.02 | 87 | 1019.2 |
| 20260507040846 | 42 | 353 | 0.0 | 0.0 | 0.00 | 0.02 | 0.02 | 86 | 1019.3 |
| 20260507040342 | 42 | 353 | 0.0 | 0.0 | 0.00 | 0.02 | 0.02 | 86 | 1019.7 |
| 20260507035838 | 42 | 353 | 0.0 | 0.0 | 0.00 | 0.02 | 0.02 | 85 | 1019.6 |
| 20260507035333 | 42 | 353 | 0.0 | 0.0 | 0.00 | 0.02 | 0.02 | 85 | 1019.7 |
| 20260507034831 | 42 | 353 | 0.0 | 0.0 | 0.00 | 0.02 | 0.02 | 84 | 1019.8 |
| 20260507034328 | 42 | 353 | 0.0 | 0.0 | 0.00 | 0.02 | 0.02 | 83 | 1019.8 |
| 20260507033826 | 42 | 352 | 0.0 | 0.0 | 0.00 | 0.02 | 0.02 | 83 | 1019.5 |
| 20260507033324 | 42 | 352 | 0.0 | 0.0 | 0.00 | 0.02 | 0.02 | 83 | 1019.3 |
| 20260507032821 | 42 | 352 | 0.0 | 0.0 | 0.00 | 0.02 | 0.02 | 83 | 1019.4 |
| 20260507032317 | 43 | 353 | 0.0 | 0.0 | 0.00 | 0.02 | 0.02 | 82 | 1019.4 |
| 20260507031814 | 43 | 354 | 0.0 | 0.0 | 0.00 | 0.02 | 0.02 | 81 | 1019.4 |
| 20260507031311 | 43 | 353 | 0.0 | 0.0 | 0.00 | 0.02 | 0.02 | 78 | 1019.4 |
| 20260507030807 | 43 | 353 | 0.0 | 0.0 | 0.00 | 0.02 | 0.02 | 78 | 1019.4 |
| 20260507030305 | 43 | 353 | 0.0 | 0.0 | 0.00 | 0.02 | 0.02 | 78 | 1019.4 |
| 20260507025802 | 43 | 353 | 0.0 | 0.0 | 0.00 | 0.02 | 0.02 | 77 | 1019.4 |
| 20260507025259 | 44 | 353 | 0.0 | 0.0 | 0.00 | 0.02 | 0.02 | 76 | 1019.3 |
| 20260507024757 | 44 | 353 | 0.0 | 0.0 | 0.00 | 0.02 | 0.02 | 76 | 1019.3 |
| 20260507024254 | 44 | 353 | 0.0 | 0.0 | 0.00 | 0.02 | 0.02 | 75 | 1019.4 |
| 20260507023749 | 44 | 353 | 0.0 | 0.0 | 0.00 | 0.02 | 0.02 | 74 | 1019.2 |
| 20260507023246 | 45 | 353 | 0.0 | 0.0 | 0.00 | 0.02 | 0.02 | 73 | 1019.2 |
| 20260507022744 | 45 | 353 | 0.0 | 0.0 | 0.00 | 0.02 | 0.02 | 72 | 1019.1 |
| 20260507022240 | 45 | 353 | 0.0 | 0.0 | 0.00 | 0.02 | 0.02 | 71 | 1019.1 |
| 20260507021736 | 46 | 353 | 0.0 | 0.0 | 0.00 | 0.02 | 0.02 | 69 | 1019.1 |
| 20260507021232 | 46 | 353 | 0.0 | 0.0 | 0.00 | 0.02 | 0.02 | 68 | 1019.2 |
| 20260507020730 | 47 | 354 | 0.0 | 0.0 | 0.00 | 0.02 | 0.02 | 65 | 1019.0 |
| 20260507020226 | 47 | 354 | 0.0 | 0.0 | 0.00 | 0.02 | 0.02 | 64 | 1018.9 |
| 20260507015723 | 48 | 354 | 0.0 | 0.0 | 0.00 | 0.02 | 0.02 | 61 | 1018.8 |
| 20260507015221 | 48 | 354 | 0.0 | 0.0 | 0.00 | 0.02 | 0.02 | 59 | 1018.9 |
| 20260507014717 | 49 | 354 | 0.0 | 0.0 | 0.00 | 0.02 | 0.02 | 57 | 1018.8 |
| 20260507014214 | 49 | 354 | 0.0 | 0.0 | 0.00 | 0.02 | 0.02 | 56 | 1018.9 |
| 20260507013711 | 50 | 354 | 0.0 | 0.0 | 0.00 | 0.02 | 0.02 | 56 | 1018.9 |
| 20260507013208 | 51 | 351 | 0.0 | 0.0 | 0.00 | 0.02 | 0.02 | 51 | 1018.9 |
| 20260507012705 | 51 | 351 | 0.0 | 0.0 | 0.00 | 0.02 | 0.02 | 51 | 1018.8 |
| 20260507012201 | 52 | 354 | 0.0 | 0.0 | 0.00 | 0.02 | 0.02 | 49 | 1018.6 |
| 20260507011658 | 53 | 353 | 0.0 | 0.0 | 0.00 | 0.02 | 0.02 | 50 | 1018.6 |
| 20260507011154 | 53 | 352 | 0.0 | 0.0 | 0.00 | 0.02 | 0.02 | 45 | 1018.6 |
| 20260507010649 | 54 | 353 | 0.0 | 0.0 | 0.00 | 0.02 | 0.02 | 46 | 1018.6 |
| 20260507010145 | 54 | 350 | 0.0 | 0.0 | 0.00 | 0.02 | 0.02 | 45 | 1018.5 |
| 20260507005643 | 55 | 352 | 0.0 | 0.0 | 0.00 | 0.02 | 0.02 | 45 | 1018.6 |
| 20260507005139 | 55 | 347 | 0.0 | 1.0 | 0.00 | 0.02 | 0.02 | 44 | 1018.4 |
| 20260507004636 | 56 | 355 | 0.0 | 1.0 | 0.00 | 0.02 | 0.02 | 43 | 1018.4 |
| 20260507004133 | 56 | 291 | 1.0 | 2.0 | 0.00 | 0.02 | 0.02 | 48 | 1018.5 |
| 20260507003630 | 56 | 350 | 0.0 | 0.0 | 0.00 | 0.02 | 0.02 | 42 | 1018.5 |
| 20260507003130 | 56 | 348 | 1.0 | 2.0 | 0.00 | 0.02 | 0.02 | 42 | 1018.5 |
| 20260507002626 | 57 | 357 | 0.0 | 0.0 | 0.00 | 0.02 | 0.02 | 41 | 1018.6 |
| 20260507002122 | 57 | 11 | 0.0 | 0.0 | 0.00 | 0.02 | 0.02 | 40 | 1018.5 |
| 20260507001619 | 57 | 14 | 2.0 | 2.0 | 0.00 | 0.02 | 0.02 | 41 | 1018.6 |
| 20260507001117 | 57 | 352 | 0.0 | 3.0 | 0.00 | 0.02 | 0.02 | 39 | 1018.5 |
| 20260507000613 | 57 | 350 | 0.0 | 1.0 | 0.00 | 0.02 | 0.02 | 40 | 1018.3 |
| 20260507000108 | 58 | 356 | 1.0 | 3.0 | 0.00 | 0.02 | 0.02 | 40 | 1018.4 |
| 20260506235606 | 58 | 46 | 2.0 | 2.0 | 0.00 | 0.02 | 0.02 | 39 | 1018.4 |
| 20260506235106 | 59 | 5 | 0.0 | 2.0 | 0.00 | 0.02 | 0.02 | 38 | 1018.5 |
| 20260506234604 | 59 | 5 | 0.0 | 2.0 | 0.00 | 0.02 | 0.02 | 38 | 1018.5 |
| 20260506234101 | 59 | 357 | 0.0 | 1.0 | 0.00 | 0.02 | 0.02 | 42 | 1018.6 |
| 20260506233557 | 59 | 352 | 0.0 | 1.0 | 0.00 | 0.02 | 0.02 | 40 | 1018.6 |
| 20260506233054 | 59 | 352 | 0.0 | 0.0 | 0.00 | 0.02 | 0.02 | 43 | 1018.5 |
| 20260506232550 | 59 | 354 | 1.0 | 7.0 | 0.00 | 0.02 | 0.02 | 37 | 1018.6 |
| 20260506232046 | 59 | 353 | 1.0 | 2.0 | 0.00 | 0.02 | 0.02 | 39 | 1018.5 |
| 20260506231544 | 59 | 287 | 2.0 | 3.0 | 0.00 | 0.02 | 0.02 | 42 | 1018.6 |
| 20260506231042 | 59 | 6 | 1.0 | 3.0 | 0.00 | 0.02 | 0.02 | 40 | 1018.3 |
| 20260506230538 | 59 | 349 | 0.0 | 3.0 | 0.00 | 0.02 | 0.02 | 40 | 1018.5 |
| 20260506230035 | 59 | 354 | 2.0 | 6.0 | 0.00 | 0.02 | 0.02 | 37 | 1018.3 |
| 20260506225532 | 60 | 355 | 0.0 | 2.0 | 0.00 | 0.02 | 0.02 | 40 | 1018.5 |
| 20260506225028 | 60 | 327 | 2.0 | 2.0 | 0.00 | 0.02 | 0.02 | 39 | 1018.6 |
| 20260506224525 | 59 | 346 | 1.0 | 2.0 | 0.00 | 0.02 | 0.02 | 40 | 1018.4 |
| 20260506224022 | 59 | 350 | 2.0 | 2.0 | 0.00 | 0.02 | 0.02 | 40 | 1018.5 |
| 20260506223517 | 60 | 7 | 0.0 | 1.0 | 0.00 | 0.02 | 0.02 | 39 | 1018.6 |
| 20260506223014 | 60 | 0 | 1.0 | 3.0 | 0.00 | 0.02 | 0.02 | 38 | 1018.5 |
| 20260506222511 | 59 | 357 | 0.0 | 4.0 | 0.00 | 0.02 | 0.02 | 40 | 1018.5 |
| 20260506222007 | 60 | 17 | 2.0 | 7.0 | 0.00 | 0.02 | 0.02 | 39 | 1018.6 |
| 20260506221505 | 60 | 14 | 0.0 | 2.0 | 0.00 | 0.02 | 0.02 | 40 | 1018.4 |
| 20260506221003 | 60 | 67 | 0.0 | 6.0 | 0.00 | 0.02 | 0.02 | 41 | 1018.6 |
| 20260506220458 | 61 | 356 | 3.0 | 4.0 | 0.00 | 0.02 | 0.02 | 38 | 1018.8 |
| 20260506215955 | 61 | 83 | 3.0 | 6.0 | 0.00 | 0.02 | 0.02 | 37 | 1018.7 |
| 20260506215451 | 62 | 8 | 0.0 | 3.0 | 0.00 | 0.02 | 0.02 | 39 | 1018.7 |
| 20260506214947 | 61 | 32 | 1.0 | 3.0 | 0.00 | 0.02 | 0.02 | 36 | 1018.6 |
| 20260506214444 | 60 | 5 | 1.0 | 7.0 | 0.00 | 0.02 | 0.02 | 39 | 1018.8 |
| 20260506213942 | 62 | 351 | 4.0 | 7.0 | 0.00 | 0.02 | 0.02 | 37 | 1019.0 |
| 20260506213439 | 61 | 280 | 0.0 | 3.0 | 0.00 | 0.02 | 0.02 | 40 | 1018.8 |
| 20260506212936 | 62 | 259 | 0.0 | 4.0 | 0.00 | 0.02 | 0.02 | 40 | 1019.1 |
| 20260506212432 | 63 | 1 | 1.0 | 4.0 | 0.00 | 0.02 | 0.02 | 41 | 1018.9 |
| 20260506211932 | 62 | 9 | 1.0 | 3.0 | 0.00 | 0.02 | 0.02 | 44 | 1019.1 |
| 20260506211429 | 61 | 356 | 0.0 | 2.0 | 0.00 | 0.02 | 0.02 | 40 | 1019.0 |
| 20260506210926 | 61 | 1 | 1.0 | 6.0 | 0.00 | 0.02 | 0.02 | 41 | 1018.9 |
| 20260506210422 | 61 | 15 | 1.0 | 2.0 | 0.00 | 0.02 | 0.02 | 42 | 1019.4 |
| 20260506205920 | 61 | 354 | 1.0 | 3.0 | 0.00 | 0.02 | 0.02 | 35 | 1019.2 |
| 20260506205415 | 61 | 350 | 0.0 | 2.0 | 0.00 | 0.02 | 0.02 | 43 | 1019.4 |
| 20260506204912 | 62 | 19 | 1.0 | 3.0 | 0.00 | 0.02 | 0.02 | 39 | 1019.3 |
| 20260506204410 | 62 | 28 | 0.0 | 3.0 | 0.00 | 0.02 | 0.02 | 42 | 1019.6 |
| 20260506203907 | 61 | 345 | 1.0 | 6.0 | 0.00 | 0.02 | 0.02 | 42 | 1019.5 |
| 20260506203404 | 62 | 12 | 1.0 | 3.0 | 0.00 | 0.02 | 0.02 | 45 | 1019.6 |
| 20260506202901 | 60 | 279 | 2.0 | 3.0 | 0.00 | 0.02 | 0.02 | 44 | 1019.7 |
| 20260506202358 | 62 | 294 | 2.0 | 4.0 | 0.00 | 0.02 | 0.02 | 40 | 1019.6 |
| 20260506201855 | 61 | 337 | 1.0 | 2.0 | 0.00 | 0.02 | 0.02 | 42 | 1019.8 |
| 20260506201352 | 62 | 333 | 1.0 | 3.0 | 0.00 | 0.02 | 0.02 | 44 | 1019.8 |
| 20260506200848 | 62 | 18 | 4.0 | 7.0 | 0.00 | 0.02 | 0.02 | 44 | 1019.9 |
| 20260506200344 | 61 | 345 | 1.0 | 4.0 | 0.00 | 0.02 | 0.02 | 41 | 1019.7 |
| 20260506195841 | 62 | 270 | 1.0 | 7.0 | 0.00 | 0.02 | 0.02 | 40 | 1020.0 |
| 20260506195338 | 61 | 343 | 2.0 | 3.0 | 0.00 | 0.02 | 0.02 | 41 | 1019.9 |
| 20260506194835 | 60 | 5 | 1.0 | 3.0 | 0.00 | 0.02 | 0.02 | 46 | 1019.9 |
| 20260506194332 | 60 | 50 | 1.0 | 6.0 | 0.00 | 0.02 | 0.02 | 41 | 1019.9 |
| 20260506193829 | 61 | 350 | 1.0 | 3.0 | 0.00 | 0.02 | 0.02 | 43 | 1020.1 |
| 20260506193326 | 61 | 340 | 4.0 | 7.0 | 0.00 | 0.02 | 0.02 | 38 | 1020.1 |
| 20260506192822 | 60 | 348 | 1.0 | 6.0 | 0.00 | 0.02 | 0.02 | 47 | 1020.1 |
| 20260506192319 | 60 | 347 | 1.0 | 6.0 | 0.00 | 0.02 | 0.02 | 41 | 1020.2 |
| 20260506191816 | 59 | 43 | 2.0 | 3.0 | 0.00 | 0.02 | 0.02 | 43 | 1020.2 |
| 20260506191312 | 60 | 150 | 2.0 | 7.0 | 0.00 | 0.02 | 0.02 | 48 | 1020.3 |
| 20260506190809 | 60 | 12 | 4.0 | 7.0 | 0.00 | 0.02 | 0.02 | 40 | 1020.2 |
| 20260506190306 | 61 | 278 | 1.0 | 2.0 | 0.00 | 0.02 | 0.02 | 44 | 1020.1 |
| 20260506185803 | 59 | 344 | 2.0 | 4.0 | 0.00 | 0.02 | 0.02 | 41 | 1020.1 |
| 20260506185259 | 60 | 51 | 2.0 | 3.0 | 0.00 | 0.02 | 0.02 | 40 | 1020.2 |
| 20260506184757 | 60 | 343 | 0.0 | 2.0 | 0.00 | 0.02 | 0.02 | 46 | 1020.3 |
| 20260506184254 | 60 | 336 | 2.0 | 6.0 | 0.00 | 0.02 | 0.02 | 50 | 1020.4 |
| 20260506183751 | 60 | 1 | 1.0 | 3.0 | 0.00 | 0.02 | 0.02 | 41 | 1020.4 |
| 20260506183251 | 58 | 338 | 1.0 | 4.0 | 0.00 | 0.02 | 0.02 | 47 | 1020.5 |
| 20260506182749 | 58 | 311 | 2.0 | 3.0 | 0.00 | 0.02 | 0.02 | 43 | 1020.5 |
| 20260506182246 | 58 | 336 | 3.0 | 4.0 | 0.00 | 0.02 | 0.02 | 41 | 1020.5 |
| 20260506181744 | 57 | 349 | 1.0 | 4.0 | 0.00 | 0.02 | 0.02 | 42 | 1020.5 |
| 20260506181241 | 58 | 274 | 1.0 | 2.0 | 0.00 | 0.02 | 0.02 | 44 | 1020.6 |
| 20260506180738 | 57 | 48 | 3.0 | 6.0 | 0.00 | 0.02 | 0.02 | 42 | 1020.5 |
| 20260506180234 | 57 | 350 | 3.0 | 4.0 | 0.00 | 0.02 | 0.02 | 43 | 1020.5 |
| 20260506175730 | 57 | 350 | 2.0 | 2.0 | 0.00 | 0.02 | 0.02 | 43 | 1020.7 |
| 20260506175227 | 57 | 357 | 0.0 | 2.0 | 0.00 | 0.02 | 0.02 | 43 | 1020.7 |
| 20260506174725 | 57 | 348 | 1.0 | 6.0 | 0.00 | 0.02 | 0.02 | 46 | 1020.5 |
| 20260506174221 | 57 | 359 | 1.0 | 3.0 | 0.00 | 0.02 | 0.02 | 46 | 1020.7 |
| 20260506173719 | 57 | 76 | 2.0 | 4.0 | 0.00 | 0.02 | 0.02 | 43 | 1020.8 |
| 20260506173216 | 57 | 356 | 1.0 | 2.0 | 0.00 | 0.02 | 0.02 | 41 | 1020.9 |
| 20260506172713 | 57 | 352 | 2.0 | 6.0 | 0.00 | 0.02 | 0.02 | 39 | 1020.8 |
| 20260506172209 | 58 | 354 | 0.0 | 1.0 | 0.00 | 0.02 | 0.02 | 42 | 1020.7 |
| 20260506171707 | 58 | 337 | 0.0 | 1.0 | 0.00 | 0.02 | 0.02 | 44 | 1020.8 |
| 20260506171204 | 57 | 338 | 2.0 | 2.0 | 0.00 | 0.02 | 0.02 | 44 | 1020.8 |
| 20260506170702 | 57 | 2 | 0.0 | 3.0 | 0.00 | 0.02 | 0.02 | 48 | 1020.8 |
| 20260506170158 | 57 | 356 | 3.0 | 4.0 | 0.00 | 0.02 | 0.02 | 43 | 1020.7 |
| 20260506165657 | 57 | 6 | 2.0 | 3.0 | 0.00 | 0.02 | 0.02 | 43 | 1020.9 |
| 20260506165153 | 57 | 10 | 1.0 | 6.0 | 0.00 | 0.02 | 0.02 | 44 | 1020.7 |
| 20260506164650 | 56 | 349 | 0.0 | 1.0 | 0.00 | 0.02 | 0.02 | 45 | 1020.8 |
| 20260506164148 | 56 | 350 | 1.0 | 2.0 | 0.00 | 0.02 | 0.02 | 48 | 1020.7 |
| 20260506163643 | 57 | 202 | 2.0 | 3.0 | 0.00 | 0.02 | 0.02 | 49 | 1020.6 |
| 20260506163139 | 57 | 335 | 0.0 | 0.0 | 0.00 | 0.02 | 0.02 | 53 | 1020.8 |
| 20260506162635 | 57 | 2 | 0.0 | 3.0 | 0.00 | 0.02 | 0.02 | 44 | 1020.6 |
| 20260506162133 | 56 | 350 | 0.0 | 2.0 | 0.00 | 0.02 | 0.02 | 47 | 1020.8 |
| 20260506161630 | 56 | 330 | 2.0 | 6.0 | 0.00 | 0.02 | 0.02 | 45 | 1020.5 |
| 20260506161127 | 56 | 45 | 1.0 | 6.0 | 0.00 | 0.02 | 0.02 | 45 | 1020.4 |
| 20260506160624 | 57 | 352 | 2.0 | 4.0 | 0.00 | 0.02 | 0.02 | 42 | 1020.4 |
| 20260506160121 | 56 | 355 | 2.0 | 4.0 | 0.00 | 0.02 | 0.02 | 44 | 1020.5 |
| 20260506155620 | 57 | 4 | 4.0 | 8.0 | 0.00 | 0.02 | 0.02 | 42 | 1020.2 |
| 20260506155116 | 59 | 12 | 1.0 | 7.0 | 0.00 | 0.02 | 0.02 | 43 | 1020.1 |
| 20260506153218 | 59 | 345 | 1.0 | 3.0 | 0.00 | 0.02 | 0.02 | 45 | 1020.0 |
| 20260506152715 | 59 | 319 | 2.0 | 4.0 | 0.00 | 0.02 | 0.02 | 40 | 1020.0 |
| 20260506152213 | 57 | 342 | 2.0 | 8.0 | 0.00 | 0.02 | 0.02 | 48 | 1020.1 |
| 20260506151712 | 57 | 24 | 2.0 | 4.0 | 0.00 | 0.02 | 0.02 | 48 | 1019.9 |
| 20260506151208 | 57 | 34 | 1.0 | 6.0 | 0.00 | 0.02 | 0.02 | 52 | 1019.9 |
| 20260506150704 | 57 | 353 | 1.0 | 6.0 | 0.00 | 0.02 | 0.02 | 42 | 1019.9 |
| 20260506150201 | 57 | 310 | 2.0 | 4.0 | 0.00 | 0.02 | 0.02 | 45 | 1019.8 |
| 20260506145658 | 57 | 3 | 0.0 | 4.0 | 0.00 | 0.02 | 0.02 | 50 | 1020.0 |
| 20260506145154 | 57 | 346 | 0.0 | 3.0 | 0.00 | 0.02 | 0.02 | 57 | 1020.0 |